This is the latest recevied weather packets stored in our database for station/object R2BLN-13. If no packets are shown the sender has not sent any weather packets the latest 10 day(s).
| Time | Temp. | Humidity | Pressure | Rain* | Wind** | Luminosity | Snow |
|---|---|---|---|---|---|---|---|
| 1787765314 | 12.78° C | 70% | 999.6 hPa | - | - | - | - |
| 1787764714 | 13.33° C | 70% | 999.5 hPa | - | - | - | - |
| 1787764114 | 13.89° C | 69% | 999.4 hPa | - | - | - | - |
| 1787763514 | 13.89° C | 69% | 999.3 hPa | - | - | - | - |
| 1787762914 | 13.89° C | 68% | 999.1 hPa | - | - | - | - |
| 1787762314 | 14.44° C | 67% | 999 hPa | - | - | - | - |
| 1787761714 | 15° C | 67% | 999.1 hPa | - | - | - | - |
| 1787761114 | 15.56° C | 65% | 998.9 hPa | - | - | - | - |
| 1787760514 | 15.56° C | 65% | 999 hPa | - | - | - | - |
| 1787759914 | 15.56° C | 65% | 998.9 hPa | - | - | - | - |
| 1787759314 | 16.11° C | 65% | 998.9 hPa | - | - | - | - |
| 1787758699 | 16.11° C | 65% | 998.8 hPa | - | - | - | - |
| 1787758084 | 16.11° C | 65% | 998.8 hPa | - | - | - | - |
| 1787757484 | 16.11° C | 64% | 998.7 hPa | - | - | - | - |
| 1787756884 | 16.11° C | 63% | 998.6 hPa | - | - | - | - |
| 1787756284 | 16.67° C | 63% | 998.6 hPa | - | - | - | - |
| 1787755684 | 16.67° C | 63% | 998.6 hPa | - | - | - | - |
| 1787755084 | 16.67° C | 62% | 998.4 hPa | - | - | - | - |
| 1787754484 | 17.22° C | 61% | 998.3 hPa | - | - | - | - |
| 1787753884 | 17.78° C | 60% | 998.1 hPa | - | - | - | - |
| 1787753284 | 17.22° C | 61% | 998.1 hPa | - | - | - | - |
| 1787752669 | 17.22° C | 60% | 998.2 hPa | - | - | - | - |
| 1787752059 | 17.78° C | 61% | 998.1 hPa | - | - | - | - |
| 1787751454 | 17.78° C | 60% | 998 hPa | - | - | - | - |
| 1787750854 | 17.78° C | 60% | 998 hPa | - | - | - | - |
* Rain since midnight (hover to see other rain measurements)
** Current wind speed in m/s (hover to see current wind gust speed)